Year,Month,Day,Hour,Minute,Value (Times are PST for temperature in C)
2017,06,24,00,00,15.30
2017,06,24,00,01,15.20
2017,06,24,00,02,15.10
2017,06,24,00,03,15.10
2017,06,24,00,04,15.00
2017,06,24,00,05,15.00
2017,06,24,00,06,14.90
2017,06,24,00,07,14.80
2017,06,24,00,08,14.80
2017,06,24,00,09,14.80
2017,06,24,00,10,14.80
2017,06,24,00,11,14.70
2017,06,24,00,12,14.70
2017,06,24,00,13,14.70
2017,06,24,00,14,14.60
2017,06,24,00,15,14.60
2017,06,24,00,16,14.60
2017,06,24,00,17,14.60
2017,06,24,00,18,14.60
2017,06,24,00,19,14.50
2017,06,24,00,20,14.50
2017,06,24,00,21,14.50
2017,06,24,00,22,14.40
2017,06,24,00,23,14.40
2017,06,24,00,24,14.30
2017,06,24,00,25,14.30
2017,06,24,00,26,14.30
2017,06,24,00,27,14.20
2017,06,24,00,28,14.20
2017,06,24,00,29,14.20
2017,06,24,00,30,14.20
2017,06,24,00,31,14.20
2017,06,24,00,32,14.20
2017,06,24,00,33,14.20
2017,06,24,00,34,14.20
2017,06,24,00,35,14.20
2017,06,24,00,36,14.20
2017,06,24,00,37,14.20
2017,06,24,00,38,14.20
2017,06,24,00,39,14.20
2017,06,24,00,40,14.20
2017,06,24,00,41,14.10
2017,06,24,00,42,14.10
2017,06,24,00,43,14.10
2017,06,24,00,44,14.00
2017,06,24,00,45,14.00
2017,06,24,00,46,14.00
2017,06,24,00,47,14.00
2017,06,24,00,48,14.00
2017,06,24,00,49,14.00
2017,06,24,00,50,14.10
2017,06,24,00,51,14.10
2017,06,24,00,52,14.10
2017,06,24,00,53,14.10
2017,06,24,00,54,14.20
2017,06,24,00,55,14.20
2017,06,24,00,56,14.20
2017,06,24,00,57,14.20
2017,06,24,00,58,14.20
2017,06,24,00,59,14.20
2017,06,24,01,00,14.20
2017,06,24,01,01,14.20
2017,06,24,01,02,14.20
2017,06,24,01,03,14.20
2017,06,24,01,04,14.20
2017,06,24,01,05,14.20
2017,06,24,01,06,14.20
2017,06,24,01,07,14.20
2017,06,24,01,08,14.20
2017,06,24,01,09,14.10
2017,06,24,01,10,14.10
2017,06,24,01,11,14.00
2017,06,24,01,12,14.00
2017,06,24,01,13,14.00
2017,06,24,01,14,14.00
2017,06,24,01,15,14.00
2017,06,24,01,16,14.00
2017,06,24,01,17,14.00
2017,06,24,01,18,14.00
2017,06,24,01,19,14.00
2017,06,24,01,20,14.00
2017,06,24,01,21,14.00
2017,06,24,01,22,14.00
2017,06,24,01,23,14.00
2017,06,24,01,24,14.10
2017,06,24,01,25,14.10
2017,06,24,01,26,14.10
2017,06,24,01,27,14.20
2017,06,24,01,28,14.20
2017,06,24,01,29,14.20
2017,06,24,01,30,14.10
2017,06,24,01,31,14.10
2017,06,24,01,32,14.10
2017,06,24,01,33,14.10
2017,06,24,01,34,14.20
2017,06,24,01,35,14.20
2017,06,24,01,36,14.20
2017,06,24,01,37,14.10
2017,06,24,01,38,14.10
2017,06,24,01,39,14.00
2017,06,24,01,40,14.00
2017,06,24,01,41,14.00
2017,06,24,01,42,14.00
2017,06,24,01,43,14.00
2017,06,24,01,44,14.00
2017,06,24,01,45,14.00
2017,06,24,01,46,14.00
2017,06,24,01,47,14.00
2017,06,24,01,48,14.00
2017,06,24,01,49,14.00
2017,06,24,01,50,14.00
2017,06,24,01,51,14.00
2017,06,24,01,52,13.90
2017,06,24,01,53,13.90
2017,06,24,01,54,13.90
2017,06,24,01,55,13.90
2017,06,24,01,56,13.80
2017,06,24,01,57,13.80
2017,06,24,01,58,13.80
2017,06,24,01,59,13.70
2017,06,24,02,00,13.70
2017,06,24,02,01,13.70
2017,06,24,02,02,13.70
2017,06,24,02,03,13.60
2017,06,24,02,04,13.60
2017,06,24,02,05,13.50
2017,06,24,02,06,13.50
2017,06,24,02,07,13.50
2017,06,24,02,08,13.50
2017,06,24,02,09,13.50
2017,06,24,02,10,13.50
2017,06,24,02,11,13.50
2017,06,24,02,12,13.50
2017,06,24,02,13,13.50
2017,06,24,02,14,13.50
2017,06,24,02,15,13.40
2017,06,24,02,16,13.40
2017,06,24,02,17,13.40
2017,06,24,02,18,13.30
2017,06,24,02,19,13.30
2017,06,24,02,20,13.30
2017,06,24,02,21,13.30
2017,06,24,02,22,13.30
2017,06,24,02,23,13.30
2017,06,24,02,24,13.30
2017,06,24,02,25,13.20
2017,06,24,02,26,13.20
2017,06,24,02,27,13.10
2017,06,24,02,28,13.10
2017,06,24,02,29,13.00
2017,06,24,02,30,13.00
2017,06,24,02,31,12.90
2017,06,24,02,32,12.90
2017,06,24,02,33,12.90
2017,06,24,02,34,12.80
2017,06,24,02,35,12.80
2017,06,24,02,36,12.80
2017,06,24,02,37,12.80
2017,06,24,02,38,12.80
2017,06,24,02,39,12.80
2017,06,24,02,40,12.80
2017,06,24,02,41,12.80
2017,06,24,02,42,12.80
2017,06,24,02,43,12.80
2017,06,24,02,44,12.80
2017,06,24,02,45,12.80
2017,06,24,02,46,12.80
2017,06,24,02,47,12.80
2017,06,24,02,48,12.80
2017,06,24,02,49,12.80
2017,06,24,02,50,12.80
2017,06,24,02,51,12.80
2017,06,24,02,52,12.80
2017,06,24,02,53,12.80
2017,06,24,02,54,12.80
2017,06,24,02,55,12.90
2017,06,24,02,56,12.90
2017,06,24,02,57,13.00
2017,06,24,02,58,13.00
2017,06,24,02,59,13.00
2017,06,24,03,00,13.00
2017,06,24,03,01,13.10
2017,06,24,03,02,13.10
2017,06,24,03,03,13.10
2017,06,24,03,04,13.10
2017,06,24,03,05,13.10
2017,06,24,03,06,13.10
2017,06,24,03,07,13.10
2017,06,24,03,08,13.10
2017,06,24,03,09,13.10
2017,06,24,03,10,13.10
2017,06,24,03,11,13.10
2017,06,24,03,12,13.20
2017,06,24,03,13,13.20
2017,06,24,03,14,13.20
2017,06,24,03,15,13.20
2017,06,24,03,16,13.20
2017,06,24,03,17,13.20
2017,06,24,03,18,13.20
2017,06,24,03,19,13.20
2017,06,24,03,20,13.10
2017,06,24,03,21,13.10
2017,06,24,03,22,13.10
2017,06,24,03,23,13.10
2017,06,24,03,24,13.00
2017,06,24,03,25,13.00
2017,06,24,03,26,13.00
2017,06,24,03,27,13.00
2017,06,24,03,28,12.90
2017,06,24,03,29,12.90
2017,06,24,03,30,12.80
2017,06,24,03,31,12.80
2017,06,24,03,32,12.80
2017,06,24,03,33,12.80
2017,06,24,03,34,12.80
2017,06,24,03,35,12.80
2017,06,24,03,36,12.80
2017,06,24,03,37,12.80
2017,06,24,03,38,12.70
2017,06,24,03,39,12.70
2017,06,24,03,40,12.70
2017,06,24,03,41,12.60
2017,06,24,03,42,12.60
2017,06,24,03,43,12.60
2017,06,24,03,44,12.60
2017,06,24,03,45,12.60
2017,06,24,03,46,12.60
2017,06,24,03,47,12.60
2017,06,24,03,48,12.70
2017,06,24,03,49,12.70
2017,06,24,03,50,12.80
2017,06,24,03,51,12.80
2017,06,24,03,52,12.80
2017,06,24,03,53,12.80
2017,06,24,03,54,12.80
2017,06,24,03,55,12.90
2017,06,24,03,56,12.90
2017,06,24,03,57,13.00
2017,06,24,03,58,13.00
2017,06,24,03,59,13.00
2017,06,24,04,00,13.00
2017,06,24,04,01,12.90
2017,06,24,04,02,12.90
2017,06,24,04,03,12.80
2017,06,24,04,04,12.80
2017,06,24,04,05,12.90
2017,06,24,04,06,12.90
2017,06,24,04,07,12.90
2017,06,24,04,08,12.90
2017,06,24,04,09,13.00
2017,06,24,04,10,13.00
2017,06,24,04,11,13.00
2017,06,24,04,12,13.00
2017,06,24,04,13,12.90
2017,06,24,04,14,12.90
2017,06,24,04,15,12.80
2017,06,24,04,16,12.70
2017,06,24,04,17,12.70
2017,06,24,04,18,12.60
2017,06,24,04,19,12.60
2017,06,24,04,20,12.50
2017,06,24,04,21,12.50
2017,06,24,04,22,12.50
2017,06,24,04,23,12.40
2017,06,24,04,24,12.40
2017,06,24,04,25,12.40
2017,06,24,04,26,12.30
2017,06,24,04,27,12.30
2017,06,24,04,28,12.30
2017,06,24,04,29,12.30
2017,06,24,04,30,12.30
2017,06,24,04,31,12.30
2017,06,24,04,32,12.30
2017,06,24,04,33,12.30
2017,06,24,04,34,12.30
2017,06,24,04,35,12.30
2017,06,24,04,36,12.30
2017,06,24,04,37,12.30
2017,06,24,04,38,12.40
2017,06,24,04,39,12.40
2017,06,24,04,40,12.50
2017,06,24,04,41,12.60
2017,06,24,04,42,12.60
2017,06,24,04,43,12.70
2017,06,24,04,44,12.70
2017,06,24,04,45,12.70
2017,06,24,04,46,12.80
2017,06,24,04,47,12.80
2017,06,24,04,48,12.80
2017,06,24,04,49,12.80
2017,06,24,04,50,12.80
2017,06,24,04,51,12.80
2017,06,24,04,52,12.80
2017,06,24,04,53,12.80
2017,06,24,04,54,12.90
2017,06,24,04,55,12.90
2017,06,24,04,56,12.90
2017,06,24,04,57,13.00
2017,06,24,04,58,13.00
2017,06,24,04,59,13.10
2017,06,24,05,00,13.10
2017,06,24,05,01,13.10
2017,06,24,05,02,13.10
2017,06,24,05,03,13.00
2017,06,24,05,04,12.90
2017,06,24,05,05,12.90
2017,06,24,05,06,12.80
2017,06,24,05,07,12.80
2017,06,24,05,08,12.80
2017,06,24,05,09,12.70
2017,06,24,05,10,12.70
2017,06,24,05,11,12.60
2017,06,24,05,12,12.50
2017,06,24,05,13,12.40
2017,06,24,05,14,12.40
2017,06,24,05,15,12.30
2017,06,24,05,16,12.20
2017,06,24,05,17,12.20
2017,06,24,05,18,12.10
2017,06,24,05,19,12.10
2017,06,24,05,20,12.00
2017,06,24,05,21,12.00
2017,06,24,05,22,11.90
2017,06,24,05,23,11.90
2017,06,24,05,24,11.90
2017,06,24,05,25,11.80
2017,06,24,05,26,11.80
2017,06,24,05,27,11.80
2017,06,24,05,28,11.80
2017,06,24,05,29,11.80
2017,06,24,05,30,11.80
2017,06,24,05,31,11.80
2017,06,24,05,32,11.80
2017,06,24,05,33,11.80
2017,06,24,05,34,11.80
2017,06,24,05,35,11.80
2017,06,24,05,36,11.80
2017,06,24,05,37,11.80
2017,06,24,05,38,11.80
2017,06,24,05,39,11.80
2017,06,24,05,40,11.80
2017,06,24,05,41,11.80
2017,06,24,05,42,11.80
2017,06,24,05,43,11.90
2017,06,24,05,44,12.00
2017,06,24,05,45,12.00
2017,06,24,05,46,12.10
2017,06,24,05,47,12.20
2017,06,24,05,48,12.30
2017,06,24,05,49,12.40
2017,06,24,05,50,12.50
2017,06,24,05,51,12.60
2017,06,24,05,52,12.70
2017,06,24,05,53,12.80
2017,06,24,05,54,13.00
2017,06,24,05,55,13.10
2017,06,24,05,56,13.30
2017,06,24,05,57,13.40
2017,06,24,05,58,13.60
2017,06,24,05,59,13.70
2017,06,24,06,00,13.80
2017,06,24,06,01,13.90
2017,06,24,06,02,14.00
2017,06,24,06,03,14.20
2017,06,24,06,04,14.30
2017,06,24,06,05,14.50
2017,06,24,06,06,14.50
2017,06,24,06,07,14.50
2017,06,24,06,08,14.40
2017,06,24,06,09,14.40
2017,06,24,06,10,14.20
2017,06,24,06,11,14.10
2017,06,24,06,12,13.90
2017,06,24,06,13,13.80
2017,06,24,06,14,13.70
2017,06,24,06,15,13.70
2017,06,24,06,16,13.70
2017,06,24,06,17,13.60
2017,06,24,06,18,13.50
2017,06,24,06,19,13.50
2017,06,24,06,20,13.50
2017,06,24,06,21,13.50
2017,06,24,06,22,13.50
2017,06,24,06,23,13.50
2017,06,24,06,24,13.50
2017,06,24,06,25,13.60
2017,06,24,06,26,13.70
2017,06,24,06,27,13.70
2017,06,24,06,28,13.70
2017,06,24,06,29,13.80
2017,06,24,06,30,13.90
2017,06,24,06,31,14.00
2017,06,24,06,32,14.10
2017,06,24,06,33,14.20
2017,06,24,06,34,14.20
2017,06,24,06,35,14.30
2017,06,24,06,36,14.50
2017,06,24,06,37,14.60
2017,06,24,06,38,14.70
2017,06,24,06,39,14.80
2017,06,24,06,40,14.90
2017,06,24,06,41,15.10
2017,06,24,06,42,15.20
2017,06,24,06,43,15.30
2017,06,24,06,44,15.30
2017,06,24,06,45,15.40
2017,06,24,06,46,15.50
2017,06,24,06,47,15.60
2017,06,24,06,48,15.70
2017,06,24,06,49,15.80
2017,06,24,06,50,15.80
2017,06,24,06,51,15.90
2017,06,24,06,52,16.10
2017,06,24,06,53,16.10
2017,06,24,06,54,16.10
2017,06,24,06,55,16.20
2017,06,24,06,56,16.30
2017,06,24,06,57,16.30
2017,06,24,06,58,16.40
2017,06,24,06,59,16.40
2017,06,24,07,00,16.40
2017,06,24,07,01,16.50
2017,06,24,07,02,16.60
2017,06,24,07,03,16.70
2017,06,24,07,04,16.70
2017,06,24,07,05,16.80
2017,06,24,07,06,16.80
2017,06,24,07,07,16.90
2017,06,24,07,08,17.10
2017,06,24,07,09,17.30
2017,06,24,07,10,17.40
2017,06,24,07,11,17.60
2017,06,24,07,12,17.80
2017,06,24,07,13,17.90
2017,06,24,07,14,18.10
2017,06,24,07,15,18.20
2017,06,24,07,16,18.40
2017,06,24,07,17,18.50
2017,06,24,07,18,18.60
2017,06,24,07,19,18.70
2017,06,24,07,20,18.90
2017,06,24,07,21,19.00
2017,06,24,07,22,19.10
2017,06,24,07,23,19.20
2017,06,24,07,24,19.30
2017,06,24,07,25,19.40
2017,06,24,07,26,19.50
2017,06,24,07,27,19.60
2017,06,24,07,28,19.70
2017,06,24,07,29,19.80
2017,06,24,07,30,19.90
2017,06,24,07,31,19.90
2017,06,24,07,32,20.00
2017,06,24,07,33,20.10
2017,06,24,07,34,20.10
2017,06,24,07,35,20.20
2017,06,24,07,36,20.30
2017,06,24,07,37,20.30
2017,06,24,07,38,20.40
2017,06,24,07,39,20.50
2017,06,24,07,40,20.60
2017,06,24,07,41,20.60
2017,06,24,07,42,20.60
2017,06,24,07,43,20.70
2017,06,24,07,44,20.80
2017,06,24,07,45,20.90
2017,06,24,07,46,21.00
2017,06,24,07,47,21.00
2017,06,24,07,48,21.10
2017,06,24,07,49,21.10
2017,06,24,07,50,21.10
2017,06,24,07,51,21.20
2017,06,24,07,52,21.20
2017,06,24,07,53,21.30
2017,06,24,07,54,21.40
2017,06,24,07,55,21.50
2017,06,24,07,56,21.60
2017,06,24,07,57,21.60
2017,06,24,07,58,21.70
2017,06,24,07,59,21.80
2017,06,24,08,00,22.00
2017,06,24,08,01,22.10
2017,06,24,08,02,22.20
2017,06,24,08,03,22.20
2017,06,24,08,04,22.30
2017,06,24,08,05,22.40
2017,06,24,08,06,22.40
2017,06,24,08,07,22.50
2017,06,24,08,08,22.60
2017,06,24,08,09,22.60
2017,06,24,08,10,22.60
2017,06,24,08,11,22.60
2017,06,24,08,12,22.60
2017,06,24,08,13,22.60
2017,06,24,08,14,22.60
2017,06,24,08,15,22.60
2017,06,24,08,16,22.60
2017,06,24,08,17,22.60
2017,06,24,08,18,22.50
2017,06,24,08,19,22.50
2017,06,24,08,20,22.50
2017,06,24,08,21,22.60
2017,06,24,08,22,22.60
2017,06,24,08,23,22.60
2017,06,24,08,24,22.60
2017,06,24,08,25,22.70
2017,06,24,08,26,22.80
2017,06,24,08,27,22.80
2017,06,24,08,28,22.90
2017,06,24,08,29,22.90
2017,06,24,08,30,23.00
2017,06,24,08,31,22.90
2017,06,24,08,32,22.90
2017,06,24,08,33,22.90
2017,06,24,08,34,22.90
2017,06,24,08,35,22.90
2017,06,24,08,36,22.90
2017,06,24,08,37,22.90
2017,06,24,08,38,22.90
2017,06,24,08,39,22.90
2017,06,24,08,40,22.90
2017,06,24,08,41,23.00
2017,06,24,08,42,23.00
2017,06,24,08,43,23.00
2017,06,24,08,44,23.10
2017,06,24,08,45,23.10
2017,06,24,08,46,23.20
2017,06,24,08,47,23.30
2017,06,24,08,48,23.30
2017,06,24,08,49,23.40
2017,06,24,08,50,23.50
2017,06,24,08,51,23.60
2017,06,24,08,52,23.70
2017,06,24,08,53,23.70
2017,06,24,08,54,23.70
2017,06,24,08,55,23.70
2017,06,24,08,56,23.70
2017,06,24,08,57,23.70
2017,06,24,08,58,23.70
2017,06,24,08,59,23.70
2017,06,24,09,00,23.70
2017,06,24,09,01,23.70
2017,06,24,09,02,23.80
2017,06,24,09,03,23.90
2017,06,24,09,04,23.90
2017,06,24,09,05,24.10
2017,06,24,09,06,24.10
2017,06,24,09,07,24.10
2017,06,24,09,08,24.10
2017,06,24,09,09,24.10
2017,06,24,09,10,24.10
2017,06,24,09,11,24.10
2017,06,24,09,12,24.10
2017,06,24,09,13,24.10
2017,06,24,09,14,24.10
2017,06,24,09,15,24.10
2017,06,24,09,16,24.00
2017,06,24,09,17,24.10
2017,06,24,09,18,24.10
2017,06,24,09,19,24.10
2017,06,24,09,20,24.20
2017,06,24,09,21,24.30
2017,06,24,09,22,24.30
2017,06,24,09,23,24.30
2017,06,24,09,24,24.20
2017,06,24,09,25,24.20
2017,06,24,09,26,24.30
2017,06,24,09,27,24.30
2017,06,24,09,28,24.30
2017,06,24,09,29,24.30
2017,06,24,09,30,24.30
2017,06,24,09,31,24.40
2017,06,24,09,32,24.40
2017,06,24,09,33,24.50
2017,06,24,09,34,24.50
2017,06,24,09,35,24.50
2017,06,24,09,36,24.40
2017,06,24,09,37,24.40
2017,06,24,09,38,24.30
2017,06,24,09,39,24.30
2017,06,24,09,40,24.40
2017,06,24,09,41,24.40
2017,06,24,09,42,24.40
2017,06,24,09,43,24.50
2017,06,24,09,44,24.50
2017,06,24,09,45,24.50
2017,06,24,09,46,24.40
2017,06,24,09,47,24.40
2017,06,24,09,48,24.40
2017,06,24,09,49,24.50
2017,06,24,09,50,24.60
2017,06,24,09,51,24.60
2017,06,24,09,52,24.60
2017,06,24,09,53,24.70
2017,06,24,09,54,24.60
2017,06,24,09,55,24.60
2017,06,24,09,56,24.70
2017,06,24,09,57,24.80
2017,06,24,09,58,24.90
2017,06,24,09,59,24.90
2017,06,24,10,00,24.80
2017,06,24,10,01,24.80
2017,06,24,10,02,24.70
2017,06,24,10,03,24.70
2017,06,24,10,04,24.60
2017,06,24,10,05,24.60
2017,06,24,10,06,24.70
2017,06,24,10,07,24.70
2017,06,24,10,08,24.50
2017,06,24,10,09,24.60
2017,06,24,10,10,24.60
2017,06,24,10,11,24.60
2017,06,24,10,12,24.50
2017,06,24,10,13,24.50
2017,06,24,10,14,24.60
2017,06,24,10,15,24.70
2017,06,24,10,16,24.70
2017,06,24,10,17,24.70
2017,06,24,10,18,24.70
2017,06,24,10,19,24.70
2017,06,24,10,20,24.70
2017,06,24,10,21,24.70
2017,06,24,10,22,24.70
2017,06,24,10,23,24.70
2017,06,24,10,24,24.70
2017,06,24,10,25,24.80
2017,06,24,10,26,24.80
2017,06,24,10,27,24.70
2017,06,24,10,28,24.70
2017,06,24,10,29,24.80
2017,06,24,10,30,24.80
2017,06,24,10,31,24.70
2017,06,24,10,32,24.70
2017,06,24,10,33,24.60
2017,06,24,10,34,24.60
2017,06,24,10,35,24.50
2017,06,24,10,36,24.50
2017,06,24,10,37,24.50
2017,06,24,10,38,24.50
2017,06,24,10,39,24.50
2017,06,24,10,40,24.60
2017,06,24,10,41,24.50
2017,06,24,10,42,24.50
2017,06,24,10,43,24.50
2017,06,24,10,44,24.50
2017,06,24,10,45,24.50
2017,06,24,10,46,24.50
2017,06,24,10,47,24.60
2017,06,24,10,48,24.70
2017,06,24,10,49,24.70
2017,06,24,10,50,24.70
2017,06,24,10,51,24.70
2017,06,24,10,52,24.80
2017,06,24,10,53,24.90
2017,06,24,10,54,24.90
2017,06,24,10,55,24.90
2017,06,24,10,56,24.90
2017,06,24,10,57,25.10
2017,06,24,10,58,25.20
2017,06,24,10,59,25.30
2017,06,24,11,00,25.30
2017,06,24,11,01,25.40
2017,06,24,11,02,25.40
2017,06,24,11,03,25.40
2017,06,24,11,04,25.30
2017,06,24,11,05,25.20
2017,06,24,11,06,25.10
2017,06,24,11,07,25.20
2017,06,24,11,08,25.20
2017,06,24,11,09,25.10
2017,06,24,11,10,25.10
2017,06,24,11,11,25.10
2017,06,24,11,12,25.10
2017,06,24,11,13,25.10
2017,06,24,11,14,25.20
2017,06,24,11,15,25.20
2017,06,24,11,16,25.20
2017,06,24,11,17,25.20
2017,06,24,11,18,25.20
2017,06,24,11,19,25.10
2017,06,24,11,20,25.10
2017,06,24,11,21,25.20
2017,06,24,11,22,25.20
2017,06,24,11,23,25.20
2017,06,24,11,24,25.20
2017,06,24,11,25,25.30
2017,06,24,11,26,25.30
2017,06,24,11,27,25.40
2017,06,24,11,28,25.40
2017,06,24,11,29,25.50
2017,06,24,11,30,25.60
2017,06,24,11,31,25.80
2017,06,24,11,32,25.80
2017,06,24,11,33,25.70
2017,06,24,11,34,25.70
2017,06,24,11,35,25.60
2017,06,24,11,36,25.60
2017,06,24,11,37,25.60
2017,06,24,11,38,25.50
2017,06,24,11,39,25.40
2017,06,24,11,40,25.40
2017,06,24,11,41,25.50
2017,06,24,11,42,25.50
2017,06,24,11,43,25.60
2017,06,24,11,44,25.70
2017,06,24,11,45,25.70
2017,06,24,11,46,25.80
2017,06,24,11,47,25.80
2017,06,24,11,48,25.90
2017,06,24,11,49,26.00
2017,06,24,11,50,26.00
2017,06,24,11,51,25.90
2017,06,24,11,52,25.90
2017,06,24,11,53,25.90
2017,06,24,11,54,25.90
2017,06,24,11,55,25.90
2017,06,24,11,56,26.00
2017,06,24,11,57,26.10
2017,06,24,11,58,26.30
2017,06,24,11,59,26.30
2017,06,24,12,00,26.40
2017,06,24,12,01,26.40
2017,06,24,12,02,26.50
2017,06,24,12,03,26.50
2017,06,24,12,04,26.30
2017,06,24,12,05,26.20
2017,06,24,12,06,26.20
2017,06,24,12,07,26.20
2017,06,24,12,08,26.30
2017,06,24,12,09,26.30
2017,06,24,12,10,26.40
2017,06,24,12,11,26.40
2017,06,24,12,12,26.50
2017,06,24,12,13,26.60
2017,06,24,12,14,26.60
2017,06,24,12,15,26.60
2017,06,24,12,16,26.50
2017,06,24,12,17,26.40
2017,06,24,12,18,26.40
2017,06,24,12,19,26.40
2017,06,24,12,20,26.40
2017,06,24,12,21,26.40
2017,06,24,12,22,26.30
2017,06,24,12,23,26.40
2017,06,24,12,24,26.50
2017,06,24,12,25,26.60
2017,06,24,12,26,26.70
2017,06,24,12,27,26.80
2017,06,24,12,28,26.80
2017,06,24,12,29,26.80
2017,06,24,12,30,26.70
2017,06,24,12,31,26.70
2017,06,24,12,32,26.60
2017,06,24,12,33,26.60
2017,06,24,12,34,26.80
2017,06,24,12,35,26.80
2017,06,24,12,36,26.80
2017,06,24,12,37,26.90
2017,06,24,12,38,27.10
2017,06,24,12,39,27.20
2017,06,24,12,40,27.30
2017,06,24,12,41,27.40
2017,06,24,12,42,27.40
2017,06,24,12,43,27.30
2017,06,24,12,44,27.30
2017,06,24,12,45,27.30
2017,06,24,12,46,27.40
2017,06,24,12,47,27.40
2017,06,24,12,48,27.30
2017,06,24,12,49,27.20
2017,06,24,12,50,27.10
2017,06,24,12,51,27.10
2017,06,24,12,52,27.30
2017,06,24,12,53,27.30
2017,06,24,12,54,27.30
2017,06,24,12,55,27.30
2017,06,24,12,56,27.20
2017,06,24,12,57,27.20
2017,06,24,12,58,27.20
2017,06,24,12,59,27.10
2017,06,24,13,00,27.20
2017,06,24,13,01,27.30
2017,06,24,13,02,27.20
2017,06,24,13,03,27.10
2017,06,24,13,04,27.10
2017,06,24,13,05,27.10
2017,06,24,13,06,27.30
2017,06,24,13,07,27.30
2017,06,24,13,08,27.30
2017,06,24,13,09,27.40
2017,06,24,13,10,27.50
2017,06,24,13,11,27.40
2017,06,24,13,12,27.40
2017,06,24,13,13,27.40
2017,06,24,13,14,27.40
2017,06,24,13,15,27.40
2017,06,24,13,16,27.40
2017,06,24,13,17,27.40
2017,06,24,13,18,27.30
2017,06,24,13,19,27.10
2017,06,24,13,20,27.10
2017,06,24,13,21,27.30
2017,06,24,13,22,27.30
2017,06,24,13,23,27.30
2017,06,24,13,24,27.30
2017,06,24,13,25,27.30
2017,06,24,13,26,27.30
2017,06,24,13,27,27.30
2017,06,24,13,28,27.40
2017,06,24,13,29,27.40
2017,06,24,13,30,27.40
2017,06,24,13,31,27.50
2017,06,24,13,32,27.60
2017,06,24,13,33,27.60
2017,06,24,13,34,27.70
2017,06,24,13,35,27.60
2017,06,24,13,36,27.70
2017,06,24,13,37,27.80
2017,06,24,13,38,27.80
2017,06,24,13,39,27.70
2017,06,24,13,40,27.50
2017,06,24,13,41,27.30
2017,06,24,13,42,27.30
2017,06,24,13,43,27.30
2017,06,24,13,44,27.30
2017,06,24,13,45,27.20
2017,06,24,13,46,27.20
2017,06,24,13,47,27.30
2017,06,24,13,48,27.40
2017,06,24,13,49,27.40
2017,06,24,13,50,27.50
2017,06,24,13,51,27.60
2017,06,24,13,52,27.60
2017,06,24,13,53,27.60
2017,06,24,13,54,27.60
2017,06,24,13,55,27.60
2017,06,24,13,56,27.70
2017,06,24,13,57,27.70
2017,06,24,13,58,27.70
2017,06,24,13,59,27.80
2017,06,24,14,00,27.90
2017,06,24,14,01,27.90
2017,06,24,14,02,28.00
2017,06,24,14,03,28.00
2017,06,24,14,04,28.00
2017,06,24,14,05,28.00
2017,06,24,14,06,28.00
2017,06,24,14,07,27.90
2017,06,24,14,08,27.70
2017,06,24,14,09,27.60
2017,06,24,14,10,27.60
2017,06,24,14,11,27.60
2017,06,24,14,12,27.60
2017,06,24,14,13,27.70
2017,06,24,14,14,28.00
2017,06,24,14,15,28.20
2017,06,24,14,16,28.50
2017,06,24,14,17,28.70
2017,06,24,14,18,28.80
2017,06,24,14,19,28.90
2017,06,24,14,20,28.80
2017,06,24,14,21,28.80
2017,06,24,14,22,28.90
2017,06,24,14,23,28.90
2017,06,24,14,24,28.90
2017,06,24,14,25,28.90
2017,06,24,14,26,28.90
2017,06,24,14,27,29.00
2017,06,24,14,28,29.10
2017,06,24,14,29,29.10
2017,06,24,14,30,29.10
2017,06,24,14,31,29.10
2017,06,24,14,32,29.00
2017,06,24,14,33,28.90
2017,06,24,14,34,28.80
2017,06,24,14,35,28.80
2017,06,24,14,36,28.90
2017,06,24,14,37,28.90
2017,06,24,14,38,28.80
2017,06,24,14,39,28.70
2017,06,24,14,40,28.60
2017,06,24,14,41,28.50
2017,06,24,14,42,28.40
2017,06,24,14,43,28.40
2017,06,24,14,44,28.50
2017,06,24,14,45,28.60
2017,06,24,14,46,28.60
2017,06,24,14,47,28.80
2017,06,24,14,48,28.80
2017,06,24,14,49,28.90
2017,06,24,14,50,28.90
2017,06,24,14,51,28.90
2017,06,24,14,52,28.90
2017,06,24,14,53,28.90
2017,06,24,14,54,28.90
2017,06,24,14,55,28.70
2017,06,24,14,56,28.70
2017,06,24,14,57,28.60
2017,06,24,14,58,28.60
2017,06,24,14,59,28.60
2017,06,24,15,00,28.70
2017,06,24,15,01,28.80
2017,06,24,15,02,28.90
2017,06,24,15,03,28.90
2017,06,24,15,04,28.90
2017,06,24,15,05,28.90
2017,06,24,15,06,28.90
2017,06,24,15,07,28.90
2017,06,24,15,08,28.90
2017,06,24,15,09,28.90
2017,06,24,15,10,29.00
2017,06,24,15,11,29.10
2017,06,24,15,12,29.00
2017,06,24,15,13,28.90
2017,06,24,15,14,29.00
2017,06,24,15,15,29.10
2017,06,24,15,16,29.10
2017,06,24,15,17,29.10
2017,06,24,15,18,29.20
2017,06,24,15,19,29.30
2017,06,24,15,20,29.30
2017,06,24,15,21,29.30
2017,06,24,15,22,29.30
2017,06,24,15,23,29.50
2017,06,24,15,24,29.60
2017,06,24,15,25,29.70
2017,06,24,15,26,29.70
2017,06,24,15,27,29.50
2017,06,24,15,28,29.40
2017,06,24,15,29,29.40
2017,06,24,15,30,29.20
2017,06,24,15,31,29.20
2017,06,24,15,32,29.20
2017,06,24,15,33,29.20
2017,06,24,15,34,29.20
2017,06,24,15,35,29.10
2017,06,24,15,36,29.10
2017,06,24,15,37,29.10
2017,06,24,15,38,29.10
2017,06,24,15,39,29.20
2017,06,24,15,40,29.20
2017,06,24,15,41,29.20
2017,06,24,15,42,29.40
2017,06,24,15,43,29.50
2017,06,24,15,44,29.60
2017,06,24,15,45,29.60
2017,06,24,15,46,29.70
2017,06,24,15,47,29.70
2017,06,24,15,48,29.70
2017,06,24,15,49,29.70
2017,06,24,15,50,29.70
2017,06,24,15,51,29.80
2017,06,24,15,52,29.80
2017,06,24,15,53,29.80
2017,06,24,15,54,29.80
2017,06,24,15,55,29.80
2017,06,24,15,56,29.90
2017,06,24,15,57,29.90
2017,06,24,15,58,29.90
2017,06,24,15,59,29.90
2017,06,24,16,00,29.90
2017,06,24,16,01,29.90
2017,06,24,16,02,29.90
2017,06,24,16,03,29.90
2017,06,24,16,04,30.00
2017,06,24,16,05,30.10
2017,06,24,16,06,30.10
2017,06,24,16,07,30.10
2017,06,24,16,08,30.00
2017,06,24,16,09,29.90
2017,06,24,16,10,29.80
2017,06,24,16,11,29.60
2017,06,24,16,12,29.50
2017,06,24,16,13,29.50
2017,06,24,16,14,29.40
2017,06,24,16,15,29.40
2017,06,24,16,16,29.40
2017,06,24,16,17,29.40
2017,06,24,16,18,29.40
2017,06,24,16,19,29.40
2017,06,24,16,20,29.40
2017,06,24,16,21,29.40
2017,06,24,16,22,29.50
2017,06,24,16,23,29.70
2017,06,24,16,24,29.60
2017,06,24,16,25,29.60
2017,06,24,16,26,29.50
2017,06,24,16,27,29.40
2017,06,24,16,28,29.30
2017,06,24,16,29,29.30
2017,06,24,16,30,29.30
2017,06,24,16,31,29.30
2017,06,24,16,32,29.30
2017,06,24,16,33,29.30
2017,06,24,16,34,29.40
2017,06,24,16,35,29.40
2017,06,24,16,36,29.40
2017,06,24,16,37,29.40
2017,06,24,16,38,29.60
2017,06,24,16,39,29.70
2017,06,24,16,40,29.80
2017,06,24,16,41,29.80
2017,06,24,16,42,29.90
2017,06,24,16,43,29.90
2017,06,24,16,44,29.90
2017,06,24,16,45,29.90
2017,06,24,16,46,29.80
2017,06,24,16,47,29.70
2017,06,24,16,48,29.70
2017,06,24,16,49,29.70
2017,06,24,16,50,29.60
2017,06,24,16,51,29.70
2017,06,24,16,52,29.70
2017,06,24,16,53,29.80
2017,06,24,16,54,29.80
2017,06,24,16,55,29.70
2017,06,24,16,56,29.60
2017,06,24,16,57,29.60
2017,06,24,16,58,29.70
2017,06,24,16,59,29.80
2017,06,24,17,00,29.80
2017,06,24,17,01,29.80
2017,06,24,17,02,29.80
2017,06,24,17,03,29.80
2017,06,24,17,04,29.90
2017,06,24,17,05,29.90
2017,06,24,17,06,29.90
2017,06,24,17,07,29.80
2017,06,24,17,08,29.80
2017,06,24,17,09,29.80
2017,06,24,17,10,29.90
2017,06,24,17,11,29.90
2017,06,24,17,12,29.90
2017,06,24,17,13,29.90
2017,06,24,17,14,29.90
2017,06,24,17,15,29.90
2017,06,24,17,16,29.90
2017,06,24,17,17,29.90
2017,06,24,17,18,29.90
2017,06,24,17,19,29.80